Date String (YYYY-MM-DD hh:mm:ss) UTC,Instrument flags,absolute air pressure of the measurement (hPa),sample flow rate (lpm),inlet stack bypass flow (lpm),air temperature of the measurement (°C),ambient temperature measured by the external sensor (°C),aerosol sample conditioner tube jacket temperature (°C),OPC LED temperature (°C),internal box temperature (°C),relative humidity of the measurement (%),span deviation,mass concentration of particles derived from Lorenz-Mie calculation of OPC scattering (μg/m³),mass concentration of particles derived from Lorenz-Mie calculation of OPC scattering (μg/m³),mass concentration of particles derived from Lorenz-Mie calculation of OPC scattering (μg/m³)
DateTimeUTC,F1_M11,P_M11,Q1_M11,Q2_M11,T1_M11,T2_M11,T3_M11,T4_M11,T5_M11,U1_M11,ZSPAN_M11,X2_M11,X0_M11,X1_M11
2023-06-11 23:00:00,SystemResetWarning,0831.3,5.01,000.00,029.6,026.8,000.0,038.3,031.0,28.8,0000.0,0004.84,0008.29,0004.40
2023-06-11 23:01:00,SystemResetWarning,0831.3,4.99,000.00,029.6,027.1,000.0,038.2,031.1,28.8,0000.0,0004.83,0008.32,0004.38
2023-06-11 23:02:00,SystemResetWarning,0831.3,4.99,000.00,029.6,027.3,000.0,038.2,031.1,28.9,0000.0,0004.79,0008.16,0004.35
2023-06-11 23:03:00,SystemResetWarning,0831.3,5.00,000.00,029.6,027.5,000.0,038.2,031.1,28.9,0000.0,0004.77,0007.98,0004.34
2023-06-11 23:04:00,SystemResetWarning,0831.3,5.01,000.00,029.6,027.7,000.0,038.2,031.1,28.7,0000.0,0004.74,0007.92,0004.31
2023-06-11 23:05:00,SystemResetWarning,0831.3,5.00,000.00,029.6,027.8,000.0,038.2,031.2,28.5,0000.0,0004.75,0007.92,0004.31
2023-06-11 23:06:00,SystemResetWarning,0831.3,4.99,000.00,029.6,027.9,000.0,038.2,031.2,28.4,0000.0,0004.76,0007.95,0004.31
2023-06-11 23:07:00,SystemResetWarning,0831.3,4.99,000.00,029.7,028.0,000.0,038.2,031.2,28.6,0000.0,0004.77,0008.57,0004.31
2023-06-11 23:08:00,SystemResetWarning,0831.3,5.00,000.00,029.7,028.1,000.0,038.2,031.3,28.7,0000.0,0004.74,0008.49,0004.30
2023-06-11 23:09:00,SystemResetWarning,0831.3,5.01,000.00,029.7,028.1,000.0,038.2,031.2,28.7,0000.0,0004.73,0008.40,0004.29
2023-06-11 23:10:00,SystemResetWarning,0831.3,5.01,000.00,029.7,028.1,000.0,038.2,031.2,28.8,0000.0,0004.73,0008.40,0004.29
2023-06-11 23:11:00,SystemResetWarning,0831.3,5.00,000.00,029.7,028.1,000.0,038.2,031.2,29.6,0000.0,0004.73,0008.36,0004.29
2023-06-11 23:12:00,SystemResetWarning,0831.4,5.00,000.00,029.7,028.1,000.0,038.2,031.2,29.5,0000.0,0004.71,0008.30,0004.29
2023-06-11 23:13:00,SystemResetWarning,0831.3,5.00,000.00,029.7,028.1,000.0,038.2,031.1,29.6,0000.0,0004.74,0008.36,0004.31
2023-06-11 23:14:00,SystemResetWarning,0831.4,5.00,000.00,029.6,028.1,000.0,038.2,031.1,29.3,0000.0,0004.75,0008.68,0004.33
2023-06-11 23:15:00,SystemResetWarning,0831.3,4.99,000.00,029.6,028.1,000.0,038.2,031.1,29.3,0000.0,0004.78,0008.75,0004.34
2023-06-11 23:16:00,SystemResetWarning,0831.3,4.99,000.00,029.6,028.2,000.0,038.2,031.2,29.4,0000.0,0004.79,0008.76,0004.37
2023-06-11 23:17:00,SystemResetWarning,0831.3,5.01,000.00,029.7,028.2,000.0,038.2,031.2,29.2,0000.0,0004.82,0008.78,0004.39
2023-06-11 23:18:00,SystemResetWarning,0831.2,5.01,000.00,029.7,028.2,000.0,038.2,031.3,28.8,0000.0,0004.85,0008.20,0004.44
2023-06-11 23:19:00,SystemResetWarning,0831.2,5.00,000.00,029.7,028.3,000.0,038.2,031.3,28.6,0000.0,0004.91,0008.28,0004.49
2023-06-11 23:20:00,SystemResetWarning,0831.2,5.00,000.00,029.8,028.3,000.0,038.3,031.3,28.6,0000.0,0004.98,0009.03,0004.53
2023-06-11 23:21:00,SystemResetWarning,0831.2,5.00,000.00,029.8,028.4,000.0,038.3,031.4,28.6,0000.0,0005.03,0009.34,0004.57
2023-06-11 23:22:00,SystemResetWarning,0831.1,4.99,000.00,029.8,028.4,000.0,038.3,031.4,28.7,0000.0,0005.06,0009.45,0004.62
2023-06-11 23:23:00,SystemResetWarning,0831.1,4.99,000.00,029.8,028.5,000.0,038.3,031.4,28.7,0000.0,0005.11,0009.52,0004.67
2023-06-11 23:24:00,SystemResetWarning,0831.1,5.02,000.00,029.9,028.5,000.0,038.3,031.5,28.6,0000.0,0005.14,0009.60,0004.69
2023-06-11 23:25:00,SystemResetWarning,0831.1,5.02,000.00,029.9,028.5,000.0,038.3,031.5,28.8,0000.0,0005.20,0009.22,0004.71
2023-06-11 23:26:00,SystemResetWarning,0831.1,5.00,000.00,029.9,028.4,000.0,038.3,031.5,29.3,0000.0,0005.31,0009.37,0004.76
2023-06-11 23:27:00,SystemResetWarning,0831.1,4.97,000.00,029.9,026.6,000.0,038.3,031.5,29.4,0000.0,0005.37,0009.54,0004.76
2023-06-11 23:28:00,SystemResetWarning,0830.9,5.03,000.00,029.9,025.1,000.0,038.3,031.4,28.9,0000.0,0005.40,0009.77,0004.76
2023-06-11 23:29:00,SystemResetWarning,0830.9,4.99,000.00,029.8,024.9,000.0,038.2,031.1,28.6,0000.0,0005.38,0009.81,0004.72
2023-06-11 23:30:00,SystemResetWarning,0830.8,5.00,000.00,029.7,025.2,000.0,038.2,030.9,29.4,0000.0,0005.36,0010.36,0004.69
2023-06-11 23:31:00,SystemResetWarning,0830.8,5.01,000.00,029.6,025.6,000.0,038.2,030.8,30.0,0000.0,0005.30,0010.35,0004.66
2023-06-11 23:32:00,SystemResetWarning,0830.8,5.00,000.00,029.6,026.0,000.0,038.2,030.9,30.1,0000.0,0005.25,0010.09,0004.62
2023-06-11 23:33:00,SystemResetWarning,0830.7,5.00,000.00,029.5,026.4,000.0,038.2,030.9,30.0,0000.0,0005.20,0009.89,0004.57
2023-06-11 23:34:00,SystemResetWarning,0830.7,5.00,000.00,029.5,026.8,000.0,038.2,030.9,29.9,0000.0,0005.13,0009.82,0004.51
2023-06-11 23:35:00,SystemResetWarning,0830.7,5.00,000.00,029.5,027.0,000.0,038.2,031.0,30.2,0000.0,0005.07,0009.71,0004.47
2023-06-11 23:36:00,SystemResetWarning,0830.7,4.99,000.00,029.5,027.3,000.0,038.2,031.0,30.5,0000.0,0005.04,0009.75,0004.44
2023-06-11 23:37:00,SystemResetWarning,0830.7,5.01,000.00,029.5,027.4,000.0,038.1,031.0,30.0,0000.0,0004.93,0009.63,0004.38
2023-06-11 23:38:00,SystemResetWarning,0830.7,5.01,000.00,029.5,027.6,000.0,038.1,031.0,29.8,0000.0,0004.84,0009.43,0004.33
2023-06-11 23:39:00,SystemResetWarning,0830.7,5.01,000.00,029.6,027.7,000.0,038.1,031.1,29.7,0000.0,0004.78,0009.26,0004.28
2023-06-11 23:40:00,SystemResetWarning,0830.7,4.99,000.00,029.6,027.9,000.0,038.1,031.1,30.4,0000.0,0004.73,0009.11,0004.25
2023-06-11 23:41:00,SystemResetWarning,0830.7,4.99,000.00,029.6,028.0,000.0,038.1,031.1,30.8,0000.0,0004.69,0008.94,0004.22
2023-06-11 23:42:00,SystemResetWarning,0830.7,4.99,000.00,029.6,028.0,000.0,038.2,031.2,31.5,0000.0,0004.70,0007.87,0004.21
2023-06-11 23:43:00,SystemResetWarning,0830.7,5.00,000.00,029.6,028.1,000.0,038.2,031.2,31.2,0000.0,0004.72,0007.98,0004.20
2023-06-11 23:44:00,SystemResetWarning,0830.7,5.01,000.00,029.7,028.2,000.0,038.2,031.2,31.2,0000.0,0004.73,0008.03,0004.20
2023-06-11 23:45:00,SystemResetWarning,0830.7,5.01,000.00,029.7,028.2,000.0,038.2,031.2,31.4,0000.0,0004.74,0008.04,0004.19
2023-06-11 23:46:00,SystemResetWarning,0830.7,4.99,000.00,029.7,028.3,000.0,038.2,031.3,31.5,0000.0,0004.77,0008.23,0004.18
2023-06-11 23:47:00,SystemResetWarning,0830.7,5.00,000.00,029.7,028.3,000.0,038.2,031.3,31.5,0000.0,0004.74,0008.38,0004.17
2023-06-11 23:48:00,SystemResetWarning,0830.6,5.00,000.00,029.8,028.3,000.0,038.2,031.3,30.9,0000.0,0004.73,0008.28,0004.16
2023-06-11 23:49:00,SystemResetWarning,0830.6,5.00,000.00,029.8,028.4,000.0,038.2,031.4,31.9,0000.0,0004.75,0008.41,0004.15
2023-06-11 23:50:00,SystemResetWarning,0830.7,5.00,000.00,029.8,028.4,000.0,038.3,031.4,31.3,0000.0,0004.71,0008.31,0004.15
2023-06-11 23:51:00,SystemResetWarning,0830.6,5.00,000.00,029.8,028.4,000.0,038.3,031.4,30.0,0000.0,0004.70,0008.32,0004.15
2023-06-11 23:52:00,SystemResetWarning,0830.6,5.01,000.00,029.9,028.5,000.0,038.3,031.4,30.8,0000.0,0004.73,0008.40,0004.14
2023-06-11 23:53:00,SystemResetWarning,0830.7,5.00,000.00,029.9,028.5,000.0,038.3,031.4,31.6,0000.0,0004.75,0008.43,0004.15
2023-06-11 23:54:00,SystemResetWarning,0830.7,5.00,000.00,029.9,028.5,000.0,038.3,031.5,31.7,0000.0,0004.74,0008.39,0004.14
2023-06-11 23:55:00,SystemResetWarning,0830.7,4.99,000.00,029.9,028.6,000.0,038.4,031.5,31.8,0000.0,0004.76,0008.44,0004.14
2023-06-11 23:56:00,SystemResetWarning,0830.8,5.00,000.00,029.9,028.6,000.0,038.4,031.6,30.6,0000.0,0004.73,0008.40,0004.13
2023-06-11 23:57:00,SystemResetWarning,0830.8,5.01,000.00,030.0,028.6,000.0,038.4,031.5,30.8,0000.0,0004.70,0008.22,0004.12
2023-06-11 23:58:00,SystemResetWarning,0830.8,5.01,000.00,030.0,028.6,000.0,038.4,031.6,30.3,0000.0,0004.71,0008.05,0004.11
2023-06-11 23:59:00,SystemResetWarning,0830.9,5.00,000.00,030.0,028.7,000.0,038.4,031.6,29.6,0000.0,0004.70,0008.07,0004.11
